sat.trackr.live / text

‹ back to catalog

STARLINK-5593

NORAD 55763 · 2023-028Y

PAYLOAD ACTIVE UNKNOWN

§ Identity

Operator
Country
US
Launch date
2023-03-03
Launch site
AFWTR
Launch vehicle
Mass (kg)
RCS (m²)

Purposes: comms

External: N2YO · Heavens-Above · Gunter

§ Orbital elements

Epoch: 2026-09-20T22:00:03.000096Z

Period
95.76 min
Inclination
70.0006°
Eccentricity
0.0003149
Mean motion
15.03703492 rev/d
Perigee alt
553.3 km
Apogee alt
557.7 km
Semi-major
6,933.6 km
B*
5.7074e-3
RAAN
112.0252°
Arg perigee
223.6103°
Mean anomaly
299.5803°
Rev number
576

§ Raw data

STARLINK-55931 55763U 23028Y   26263.91670139  .00079187  00000+0  57074-2 0  99922 55763  70.0006 112.0252 0003149 223.6103 299.5803 15.03703492  5766

JSON: /api/v1/satellites/55763 · /tle

For live sub-satellite position, see the globe view (requires WebGL).

§ Visibility from observer

Set your observer location to see the next 7 days of passes ≥ 10°. The values pass through the URL so the page stays shareable.

No JS? Fill the form by hand. The geolocation button needs JavaScript.